Content
SEND FEEDBACK

Daily
Averages
Monthly
Summary
United States of America

SOUTH FORK, COLORADO


Home > North America > United States > Colorado
Elevation: 3364 meters     Latitude: 37 29N     Longitude: 106 47W

WEATHER
 
SELECT A DAY
Number of Records: 262,674;   Date Range: 8/29/01 - 12/26/14
 
SHARE

PRINT THIS DATA

[ ← Previous Day ]
WEATHER ALMANAC - 31 JANUARY, 2013
[ Next Day → ]
[ °F ]   °C
Weather ElementAverageHighLow
Temperature-11 °C-5 °C (2:30 pm)-16 °C (3:49 am)
Dewpoint-12.9 °C-7 °C (3:30 pm)-17 °C (1:49 am)
Humidity86.7 %100 % (6:09 pm)58 % (1:49 pm)
Barometer1021.7 hPa1024 hPa (11:10 am)1017.6 hPa (12:50 am)
Wind Speed16.1 km/h35.2 km/h (6:30 pm)
Wind Gust48.1 km/h (7:30 am)
Weather ElementAverage
Visibility10.6 km
Wind DirectionSSW (202.6 °)

Weather ElementTotal
Precipitation---
Heating Degree Days28.8 (Base 18.3)
Averaged from 70 records on 31 January, 2013
WEATHER CONDITIONS BREAKOUT
WIND DIRECTION BREAKOUT
WEATHER BY HOUR - 31 JANUARY, 2013
[ °F ]   °C
Local TimeTemperatureDewpointHumidityBarometerVisibilityWind DirectionWind SpeedGust SpeedPrecipitationEventsConditions
12:29 AM-15 °C-16 °C92 %1017.9 hPaSSW (210°)20.4 km/h31.5 km/hMostly Cloudy
12:50 AM-15 °C-16 °C92 %1017.6 hPaSW (220°)16.7 km/h25.9 km/hOvercast
1:09 AM-15 °C-16 °C92 %1017.6 hPaSW (220°)16.7 km/h27.8 km/hOvercast
1:30 AM-15 °C-16 °C92 %1017.6 hPaSW (220°)16.7 km/hOvercast
1:49 AM-15 °C-17 °C85 %1017.9 hPaSSW (210°)18.5 km/hOvercast
2:10 AM-15 °C-17 °C85 %1017.9 hPaSSW (210°)16.7 km/h37 km/hOvercast
2:30 AM-15 °C-17 °C85 %1017.9 hPaSW (220°)16.7 km/hMostly Cloudy
2:50 AM-15 °C-17 °C85 %1017.9 hPaSW (230°)18.5 km/h
3:10 AM-15 °C-17 °C85 %1018.3 hPaSW (220°)16.7 km/h27.8 km/h
3:29 AM-15 °C-17 °C85 %1017.9 hPaSSW (210°)16.7 km/h
3:49 AM-16 °C-17 °C92 %1017.9 hPaSW (220°)18.5 km/h25.9 km/hMostly Cloudy
4:09 AM-15 °C-17 °C85 %1018.3 hPaSW (220°)18.5 km/h25.9 km/h
4:29 AM-15 °C-16 °C92 %1018.3 hPaSW (220°)18.5 km/h27.8 km/h
4:49 AM-15 °C-16 °C92 %1018.3 hPaSW (220°)18.5 km/h
5:10 AM-15 °C-16 °C92 %1019 hPaSSW (210°)5.6 km/h
5:30 AM-15 °C-16 °C92 %1019.3 hPaSSW (200°)5.6 km/h25.9 km/h
5:50 AM-15 °C-16 °C92 %1019.3 hPaSW (230°)16.7 km/h25.9 km/h
6:10 AM-15 °C-16 °C92 %1019.3 hPaWSW (240°)13 km/h
6:30 AM-14 °C-15 °C92 %1019.3 hPaWest (260°)14.8 km/h27.8 km/h
6:50 AM-14 °C-15 °C92 %1019.3 hPaNNW (330°)11.1 km/h
7:10 AM-14 °C-16 °C85 %1019.3 hPaNNE (20°)22.2 km/h31.5 km/h
7:30 AM-13 °C-15 °C85 %1019.3 hPaNNE (20°)24.1 km/h48.1 km/h
7:49 AM-13 °C-15 °C85 %1020.3 hPaWest (280°)5.6 km/h25.9 km/h
8:09 AM-13 °C-15 °C85 %1020.3 hPaSSW (200°)13 km/h29.6 km/h
8:30 AM-13 °C-14 °C92 %1020.7 hPaSouth (180°)13 km/h29.6 km/h
8:49 AM-12 °C-13 °C92 %1021.7 hPaCalm
9:08 AM-11 °C-13 °C85 %1021.7 hPaSouth (180°)7.4 km/h27.8 km/h
9:29 AM-11 °C-13 °C85 %1022.4 hPaSW (230°)5.6 km/h
9:50 AM-10 °C-12 °C86 %1022.4 hPaNorth (350°)7.4 km/h
10:08 AM-10 °C-13 °C79 %1022.7 hPaCalmClear
10:20 AM-9 °C-12 °C79 %1022.7 hPaENE (70°)7.4 km/hClear
10:50 AM-8 °C-13 °C68 %1023.4 hPa16.1 kmCalmClear
11:10 AM-7 °C-10 °C80 %1024 hPa16.1 kmWest (270°)13 km/hClear
11:30 AM-7 °C-10 °C80 %1024 hPa16.1 kmCalmClear
11:50 AM-7 °C-12 °C68 %1023.7 hPa16.1 kmNNW (340°)11.1 km/hClear
12:10 PM-7 °C-11 °C74 %1023.4 hPa16.1 kmCalmClear
12:30 PM-6 °C-12 °C63 %1023.4 hPa16.1 kmCalmClear
12:50 PM-6 °C-12 °C63 %1023.4 hPa16.1 kmCalmClear
1:10 PM-6 °C-11 °C68 %1023.4 hPa16.1 kmWest (280°)7.4 km/hClear
1:30 PM-6 °C-10 °C74 %1023.4 hPa16.1 kmWNW (300°)9.3 km/hClear
1:49 PM-6 °C-13 °C58 %1023 hPa16.1 kmNNW (340°)13 km/hClear
2:10 PM-6 °C-13 °C58 %1022.7 hPa16.1 kmNNW (340°)5.6 km/h27.8 km/hClear
2:30 PM-5 °C-10 °C68 %1022.7 hPa16.1 kmWNW (300°)7.4 km/hClear
2:50 PM-6 °C-8 °C86 %1023 hPa8 kmWSW (240°)9.3 km/hHaze
3:10 PM-6 °C-8 °C86 %1023.4 hPa0.8 kmSSW (200°)5.6 km/hFogLight Freezing Fog
3:30 PM-6 °C-7 °C93 %1023.4 hPa2.9 kmSSW (210°)11.1 km/hMostly Cloudy
3:50 PM-6 °C-7 °C93 %1023.4 hPa0.8 kmSSW (210°)18.5 km/hFogLight Freezing Fog
4:10 PM-7 °C-8 °C93 %1023.7 hPa2.4 kmSW (220°)22.2 km/hOvercast
4:30 PM-8 °C-9 °C93 %1023.7 hPa16.1 kmSSW (210°)25.9 km/hMostly Cloudy
4:50 PM-10 °C-11 °C93 %1023.7 hPa16.1 kmSW (220°)22.2 km/h33.3 km/hScattered Clouds
5:30 PM-10 °C-12 °C86 %1023.7 hPa16.1 kmSW (220°)27.8 km/hClear
5:50 PM-11 °C-12 °C92 %1023.7 hPa16.1 kmSW (220°)24.1 km/h35.2 km/hClear
6:09 PM-11 °C-11 °C100 %1024 hPa16.1 kmSW (230°)33.3 km/h42.6 km/hMostly Cloudy
6:30 PM-11 °C-13 °C85 %1024 hPa16.1 kmSW (220°)35.2 km/h44.4 km/hScattered Clouds
6:50 PM-12 °C-13 °C92 %1024 hPa16.1 kmSW (220°)33.3 km/h46.3 km/hClear
7:09 PM-11 °C-12 °C92 %1024 hPa16.1 kmSW (220°)27.8 km/h37 km/hMostly Cloudy
7:30 PM-11 °C-12 °C92 %1024 hPa3.2 kmSW (220°)29.6 km/h38.9 km/hOvercast
7:50 PM-11 °C-11 °C100 %1024 hPa0.8 kmSW (220°)27.8 km/hFogLight Freezing Fog
8:10 PM-11 °C-11 °C100 %1024 hPa0.8 kmSW (230°)31.5 km/h40.7 km/hFogLight Freezing Fog
8:30 PM-10 °C-11 °C93 %1024 hPa0.8 kmSW (220°)33.3 km/h46.3 km/hFogLight Freezing Fog
8:50 PM-10 °C-11 °C93 %1024 hPa0.8 kmSW (220°)18.5 km/h37 km/hFogLight Freezing Fog
9:09 PM-10 °C-11 °C93 %1024 hPa0.3 kmSSW (210°)13 km/hFogLight Freezing Fog
9:30 PM-10 °C-11 °C93 %1024 hPa0.3 kmSW (230°)22.2 km/hFogLight Freezing Fog
9:50 PM-11 °C-11 °C100 %1024 hPa0.8 kmSW (220°)18.5 km/h27.8 km/hFogLight Freezing Fog
10:10 PM-11 °C-11 °C100 %1024 hPa0.8 kmSW (220°)18.5 km/hFogLight Freezing Fog
10:30 PM-11 °C-11 °C100 %1024 hPa1.3 kmSW (220°)16.7 km/hOvercast
10:50 PM-11 °C-12 °C92 %1024 hPa16.1 kmSW (230°)24.1 km/hScattered Clouds
11:09 PM-11 °C-12 °C92 %1024 hPa16.1 kmSW (230°)29.6 km/hClear
11:30 PM-11 °C-12 °C92 %1024 hPa16.1 kmSW (220°)27.8 km/hClear
11:50 PM-11 °C-12 °C92 %1024 hPa16.1 kmSW (230°)25.9 km/hClear
Hourly data recorded from KCPW, located 0 kilometers away from South Fork, Colorado







STORIES FROM OUR PARTNERS